EHI
1 0 1 3 3 1 0 0 0 0 0 0 0 0 0 0 0 0 0 0 0 0 2 5 9 12 13 9 5 4 3 2 2 2 3 4 5 6 6 4 2 1 2 3 3 3 2 1 0
2 1 2 3 2 0 0 0 0 0 0 0 0 0 0 0 0 0 0 0 0 1 3 5 8 11 11 8 5 3 2 1 1 1 2 3 4 5 6 5 3 1 1 2 2 3 2 1 0
4 5 5 3 1 0 0 0 0 0 0 0 0 0 0 0 0 0 0 0 1 2 4 5 7 9 9 7 4 3 1 0 0 0 1 1 2 3 4 5 5 2 1 1 1 1 2 2 1
5 8 7 2 0 0 0 0 0 0 0 0 0 0 0 0 0 0 0 0 1 3 4 4 6 7 7 5 4 3 1 0 0 0 0 0 1 1 2 3 4 3 2 1 0 0 1 1 1
4 6 4 1 0 0 0 0 0 0 0 0 0 0 0 0 0 0 0 0 1 2 2 2 5 7 7 5 4 3 2 0 0 0 0 0 0 0 1 1 2 3 3 2 1 1 1 1 1
3 4 2 0 0 0 0 0 0 0 0 0 0 0 0 0 0 0 0 0 0 1 2 2 4 7 8 6 4 3 2 1 0 0 0 0 0 0 0 1 1 2 3 3 2 3 3 3 3
3 3 1 0 0 0 0 1 0 0 0 0 0 0 0 0 1 1 0 0 0 0 1 2 4 6 6 5 4 3 2 1 1 0 0 0 0 0 0 0 1 1 1 2 2 3 4 4 5
3 2 1 0 0 0 0 0 0 0 0 0 0 0 0 1 2 2 1 0 0 0 1 2 3 2 2 3 4 4 2 1 1 1 1 1 1 1 0 0 0 0 0 0 1 3 4 4 5
3 2 1 0 0 0 0 0 0 0 0 0 0 0 2 3 4 4 4 3 2 2 2 2 1 1 0 1 2 3 2 1 0 1 1 1 1 1 1 0 0 0 0 1 2 4 4 3 3
3 2 0 0 0 0 0 0 0 0 0 0 0 2 4 5 6 7 8 7 6 5 4 1 0 0 0 0 1 3 3 2 1 0 1 1 1 0 1 1 1 1 1 2 3 5 6 4 2
3 2 0 0 0 0 0 0 0 0 0 0 1 4 6 6 6 7 8 8 7 6 4 2 0 0 0 1 1 3 3 2 1 0 1 2 2 2 2 3 4 3 2 2 4 6 6 5 2
1 1 0 0 0 0 0 0 1 1 1 1 2 5 6 6 5 5 5 6 5 5 4 3 2 2 2 2 2 2 2 1 0 0 1 2 3 3 4 5 5 3 2 3 4 4 5 4 2
0 0 0 0 0 0 0 1 2 2 2 2 3 5 6 6 4 3 3 3 4 5 5 4 3 3 3 2 1 1 1 0 0 0 0 2 3 3 4 4 2 2 3 4 5 4 4 3 3
0 0 0 0 0 0 1 2 3 3 3 3 4 5 6 5 3 2 2 2 3 5 6 5 4 4 3 1 0 0 0 0 0 0 0 1 2 2 2 2 1 0 1 2 4 4 4 4 4
0 0 0 0 0 0 1 2 3 3 3 3 3 4 5 4 2 1 1 1 2 4 6 6 6 6 5 2 0 0 0 0 1 1 0 0 1 2 2 2 1 0 0 0 1 2 3 4 4
0 0 0 0 0 0 1 1 3 3 3 3 2 1 2 2 1 0 0 0 1 4 7 8 7 6 6 4 1 0 0 1 2 1 0 0 0 1 2 2 1 1 0 0 0 0 1 2 3
0 0 0 0 0 0 0 1 2 3 2 1 1 0 0 1 1 1 0 0 2 6 10 10 8 7 7 5 3 1 0 1 1 1 0 0 0 1 1 1 2 2 1 1 1 1 1 0 1
0 0 0 0 0 0 0 1 2 2 1 0 0 0 0 1 2 2 1 0 2 8 12 12 10 10 9 7 5 3 2 1 1 1 0 0 0 0 0 0 1 1 1 2 2 2 2 1 1
0 0 0 0 0 0 0 1 2 1 1 1 1 0 1 2 3 2 1 1 4 10 14 14 13 13 12 10 9 7 5 3 2 2 1 0 0 0 0 0 0 0 1 3 3 3 3 2 2
0 0 0 0 0 0 0 1 2 2 2 3 2 2 2 3 3 2 2 4 7 11 13 13 14 15 15 14 13 11 8 5 4 4 4 2 0 0 0 0 0 1 2 3 3 3 3 3 3
0 0 0 0 0 0 0 1 2 3 3 3 3 2 3 3 3 3 4 6 8 8 9 11 14 17 18 17 16 14 11 6 5 5 5 4 2 1 0 0 0 2 3 3 3 3 3 3 3
0 0 0 0 0 0 0 1 2 3 4 4 3 2 3 3 4 4 6 7 6 5 6 11 16 20 20 18 16 15 12 8 6 6 6 5 4 3 1 0 0 1 2 1 1 2 3 3 3
0 0 0 0 0 0 0 1 2 2 3 3 3 3 4 4 4 4 5 7 6 5 9 15 20 24 24 20 16 15 13 10 8 7 7 6 5 3 2 1 1 1 2 1 1 2 3 3 3
0 0 0 0 0 0 0 0 1 1 1 1 2 3 5 6 5 4 5 7 8 11 14 19 24 27 26 22 18 17 16 13 10 9 8 6 4 3 2 2 2 3 3 3 3 3 3 3 3
0 0 0 0 0 0 0 1 1 0 0 0 1 3 6 7 5 5 7 9 12 16 18 20 23 24 23 22 21 20 18 15 12 9 8 6 4 3 3 3 3 3 4 4 4 4 4 4 4
0 0 0 0 0 0 0 1 1 1 1 1 1 3 6 8 7 6 7 10 13 16 17 18 19 19 19 21 23 22 19 14 10 9 7 5 4 3 4 4 3 3 3 3 4 4 4 5 6
0 0 0 0 0 0 0 0 0 1 3 3 2 3 6 8 8 6 7 8 10 12 14 15 17 17 17 20 22 21 16 11 9 9 8 5 4 3 4 5 5 5 4 4 4 4 4 5 6
0 0 0 0 0 0 0 0 1 2 3 3 4 5 7 7 7 7 7 6 8 10 11 13 15 16 17 18 19 17 15 12 11 10 8 6 4 4 5 6 7 7 8 7 6 5 4 5 5
0 0 0 0 0 0 0 0 2 3 3 3 5 8 9 7 7 9 8 6 8 9 11 12 14 15 16 17 18 17 15 14 13 12 11 9 8 7 7 7 8 9 10 10 9 7 6 5 5
0 0 0 0 0 0 0 0 2 3 3 3 5 9 10 9 8 10 10 8 9 10 11 11 14 15 15 16 18 17 16 15 14 13 12 11 11 11 10 7 8 10 11 12 11 9 6 5 4
Wind_Speed
10 9 5 4 5 1 8 7 6 5 6 6 6 5 6 8 7 6 5 5 5 6 8 8 7 6 6 6 6 5 5 6 6 6 6 6 6 6 6 6 6 6 6 6 6 8 9 9 9
7 6 5 6 2 5 8 7 7 8 6 4 5 5 6 8 7 6 4 4 5 6 7 7 8 6 6 6 5 6 6 6 6 6 6 6 6 6 6 6 6 6 6 6 6 7 8 8 8
6 6 5 2 4 7 7 7 6 6 5 4 4 6 6 6 6 4 5 5 5 6 6 9 7 6 6 6 6 6 5 5 5 5 5 5 6 6 6 6 6 5 5 6 6 6 7 7 7
5 6 5 0 8 9 7 6 5 4 6 5 5 7 7 7 5 6 7 6 6 6 6 9 6 6 6 6 6 5 5 5 5 6 6 5 5 5 5 5 5 5 5 6 7 7 7 7 7
5 5 2 6 10 8 7 6 4 4 5 6 6 8 8 7 7 8 7 6 6 6 5 8 7 6 6 6 6 6 5 6 6 6 6 5 5 5 5 4 4 4 5 6 7 6 6 6 6
5 4 2 7 9 7 7 5 4 6 7 6 6 7 8 6 7 7 7 6 6 6 5 8 7 6 6 6 6 6 6 7 6 6 5 5 5 4 4 4 4 4 5 5 6 6 5 5 6
4 2 5 7 7 8 7 5 5 6 6 6 4 6 7 7 7 7 7 7 6 6 5 6 7 8 8 7 6 6 6 6 6 6 5 5 4 4 4 4 5 4 5 5 5 5 5 5 5
4 3 4 6 6 8 6 5 6 5 7 6 3 4 6 7 7 7 7 7 6 6 6 6 6 6 6 7 8 6 5 6 5 5 5 4 5 6 6 5 5 4 4 4 4 4 4 4 4
5 1 5 6 6 6 5 5 5 5 7 6 6 7 9 10 8 7 7 7 6 6 5 5 5 5 4 5 7 6 6 6 4 5 5 3 2 3 4 5 5 4 3 4 4 4 4 5 6
3 3 7 6 5 5 5 5 5 4 6 6 7 9 10 9 7 7 6 6 6 5 5 4 4 4 4 4 4 3 4 4 3 3 2 2 2 2 2 6 5 4 4 4 4 5 6 6 4
1 4 6 5 4 3 3 5 4 3 5 5 6 8 9 8 7 6 5 5 5 4 4 4 4 4 4 3 3 2 2 3 3 3 2 2 1 2 2 2 4 3 4 2 4 4 2 1 1
1 3 4 4 4 3 3 4 6 5 6 6 7 8 9 7 6 5 5 5 5 4 4 4 5 4 4 3 3 2 2 2 2 3 2 2 1 1 1 1 2 1 1 1 1 1 1 1 1
2 2 3 3 3 4 4 4 5 5 6 7 8 8 8 7 6 5 5 5 5 4 4 5 4 5 4 3 1 3 3 2 3 2 2 2 1 2 2 2 2 1 1 1 1 1 1 1 1
1 1 1 2 3 4 4 4 3 5 6 7 7 7 6 6 5 5 5 4 4 4 4 5 5 5 4 3 2 2 2 2 2 2 3 2 2 2 1 2 2 2 2 2 1 0 1 1 0
2 2 3 3 2 2 2 3 3 5 7 7 7 6 6 5 5 4 4 4 4 4 4 5 5 5 4 3 3 2 2 3 2 2 2 2 2 2 1 2 2 2 2 1 1 1 1 1 1
5 4 2 3 2 2 4 3 6 5 6 6 6 6 6 5 5 4 4 3 4 4 5 4 3 5 4 3 2 2 2 3 2 2 2 3 3 2 2 2 2 2 1 2 1 1 1 1 1
5 1 1 3 2 2 3 2 5 5 5 6 6 6 6 6 5 4 4 4 4 4 4 4 3 3 3 3 2 2 2 2 2 2 2 3 2 2 2 2 2 1 2 2 2 3 2 1 1
1 2 1 1 2 3 2 1 4 5 5 5 5 5 5 5 6 5 5 5 4 4 4 4 4 3 3 3 2 2 2 2 2 2 3 3 2 3 2 1 2 2 1 2 2 2 2 1 1
4 5 3 1 1 2 2 2 3 5 5 5 5 5 5 5 5 6 6 5 5 5 5 4 3 4 3 2 1 2 1 1 2 2 3 3 3 3 2 2 2 2 2 2 2 2 1 1 1
6 5 2 1 1 2 2 2 3 4 5 4 4 5 5 6 6 6 6 6 5 5 5 5 4 4 3 2 2 1 1 1 2 2 3 3 3 3 2 3 2 3 2 2 2 2 2 2 1
6 4 3 2 3 5 4 4 5 5 5 5 5 5 5 6 7 7 7 7 6 5 5 4 4 4 3 3 3 3 2 1 2 2 2 3 3 3 3 3 3 2 2 2 2 2 2 1 1
5 3 4 4 6 3 4 3 4 5 6 6 6 6 5 6 7 7 8 7 7 6 6 5 5 5 4 4 3 3 2 1 2 1 2 2 3 3 3 2 2 2 2 2 2 2 2 2 1
3 1 4 6 6 5 5 5 3 5 4 5 5 5 5 6 6 7 7 7 7 7 6 6 6 5 5 4 4 3 2 2 2 2 3 2 3 2 2 2 2 2 2 2 3 2 3 2 3
4 5 5 7 7 6 2 5 1 3 1 2 3 4 4 5 6 6 7 7 7 7 7 7 7 5 5 4 4 3 3 2 2 2 2 1 1 2 2 2 2 2 2 2 2 2 2 3 3
9 8 5 6 5 2 2 4 1 3 0 1 2 3 4 5 6 6 7 8 7 7 7 7 7 6 6 5 4 4 3 3 2 1 2 0 1 1 2 2 2 2 2 2 2 2 3 2 2
9 9 7 5 4 1 4 3 3 3 2 2 2 3 3 5 5 6 7 7 8 8 7 7 7 6 6 5 4 4 3 2 2 1 0 0 1 2 2 1 2 2 2 2 2 2 1 2 2
7 9 8 8 7 6 3 2 4 4 4 3 3 4 4 4 5 5 6 7 7 7 7 7 7 6 6 5 5 4 3 1 1 1 1 0 1 0 0 1 2 2 2 2 2 2 2 2 2
7 6 7 8 6 6 5 4 2 5 4 4 4 4 4 5 5 5 6 6 6 7 7 7 7 6 6 6 4 4 3 3 2 1 1 1 1 1 1 1 1 2 2 2 2 2 1 1 1
7 8 7 7 7 7 5 1 3 3 3 4 4 4 5 5 5 6 6 6 6 6 7 7 7 6 6 5 4 4 3 3 3 2 1 0 0 0 1 1 1 2 2 2 2 2 1 2 2
8 8 9 8 7 8 7 1 5 3 3 3 4 5 5 5 5 5 6 6 6 5 5 6 6 6 6 5 5 4 4 3 2 2 1 1 0 0 0 1 2 2 1 2 2 2 2 2 2
Wind_Direction
180 184 202 228 232 131 60 51 46 51 51 44 42 38 40 33 19 48 66 86 98 113 119 124 114 113 115 116 118 119 118 119 124 132 139 144 145 146 147 146 148 149 152 151 146 146 148 154 156
174 181 223 237 274 75 66 50 53 52 61 57 52 49 58 56 45 72 92 92 105 107 116 113 112 115 115 116 118 117 117 120 124 130 137 139 140 142 145 147 145 147 148 145 142 143 149 151 155
178 221 257 256 45 52 61 56 64 71 65 55 63 50 42 49 58 71 89 111 109 101 109 108 114 114 112 113 116 116 120 126 132 134 134 136 136 138 144 146 146 148 146 143 146 151 151 152 159
210 225 234 195 66 54 52 53 69 84 74 64 70 76 70 46 51 83 103 114 110 112 113 108 115 114 114 112 113 113 120 127 134 133 132 134 136 138 140 147 149 154 155 155 155 155 154 158 162
238 255 198 82 68 61 54 47 48 65 64 70 71 82 76 64 75 93 106 108 105 103 103 112 117 116 112 112 109 103 108 121 128 129 127 130 136 137 139 144 147 149 152 148 149 152 154 156 158
248 250 52 65 67 68 65 54 60 71 78 76 79 85 81 88 94 98 103 103 100 98 96 103 116 118 114 112 112 110 106 112 119 123 122 124 125 130 133 131 134 136 139 141 146 153 153 158 166
289 336 50 59 67 70 59 52 56 71 74 69 75 86 98 97 96 103 102 102 97 96 93 98 120 130 132 125 115 111 110 109 111 114 116 117 121 126 129 131 133 139 144 148 153 156 156 162 168
293 295 66 62 59 64 67 71 62 61 73 76 67 84 103 114 117 112 107 104 100 94 89 91 105 113 131 133 126 117 112 108 106 107 107 120 148 152 150 152 134 139 145 153 159 167 175 177 177
264 272 55 44 45 61 70 80 83 82 93 87 69 71 97 122 126 119 114 108 97 87 84 86 97 106 110 111 120 140 136 127 138 132 128 167 141 125 147 112 124 143 146 151 161 174 183 193 189
279 26 48 34 33 53 62 59 86 111 100 96 94 94 110 128 132 123 115 111 102 90 87 88 89 94 96 98 111 126 124 116 108 85 96 93 81 100 114 122 142 152 155 165 171 190 205 217 192
356 32 45 49 46 51 75 75 78 87 80 86 109 120 127 132 130 122 108 97 94 94 86 89 94 95 94 97 101 98 105 108 115 105 99 82 81 115 122 132 149 156 171 162 161 191 196 186 177
92 56 46 53 54 63 74 86 82 59 59 84 111 125 131 136 132 125 114 104 99 90 86 85 91 91 81 77 94 110 108 104 94 91 56 79 75 62 68 92 93 113 111 132 172 155 124 151 203
126 76 66 72 85 80 92 86 82 81 87 101 114 124 130 129 122 114 109 105 99 97 94 95 96 98 104 105 84 90 87 91 98 91 78 57 72 68 69 77 75 81 100 139 154 126 128 189 194
57 119 125 116 109 115 101 93 105 103 118 120 125 128 130 126 122 117 118 113 108 105 99 100 109 110 110 112 105 91 97 97 85 82 69 56 58 59 54 89 73 60 45 19 8 115 176 179 124
213 198 160 140 148 141 158 111 108 126 140 137 138 136 134 134 127 119 120 122 122 115 107 110 115 112 109 108 114 104 97 85 75 78 79 62 56 50 33 56 67 53 34 28 30 32 53 110 132
214 224 166 127 170 181 242 98 107 143 157 152 151 146 148 146 141 135 129 130 124 121 116 115 114 114 116 106 86 76 70 76 74 77 76 64 54 39 18 37 55 39 20 28 29 9 33 61 67
209 255 37 130 156 199 235 98 116 152 167 160 157 153 158 155 155 150 146 146 137 131 125 124 118 119 122 122 121 101 87 74 74 72 64 61 59 43 23 29 37 8 14 16 8 37 19 50 55
319 317 323 354 122 203 218 150 144 162 178 170 165 162 166 170 165 160 156 152 149 142 136 135 136 129 136 141 135 116 87 87 79 71 53 36 46 42 16 57 38 1 21 18 26 26 33 27 42
295 292 300 12 101 226 224 220 182 172 186 187 179 171 178 179 168 164 161 156 153 153 150 150 149 145 158 155 152 131 104 82 83 84 64 45 31 36 22 23 40 8 28 17 16 11 59 55 45
259 270 262 155 151 246 246 240 189 184 197 202 195 189 189 184 171 167 169 164 160 156 155 154 157 151 162 137 131 114 88 77 69 57 64 42 37 28 42 28 9 30 33 29 15 0 359 28 24
246 265 278 268 200 207 238 210 180 179 190 194 204 199 194 190 181 174 172 170 168 164 164 156 153 151 153 148 150 135 141 146 104 81 72 46 41 41 38 34 20 18 9 39 7 349 4 7 19
244 252 253 237 238 224 252 265 158 175 184 190 199 202 199 190 185 180 174 172 171 168 161 159 156 153 153 160 150 144 125 93 71 62 66 60 56 50 55 48 30 4 7 23 338 21 333 313 331
268 238 239 244 254 256 235 269 144 176 196 191 198 201 198 190 182 181 177 170 169 164 159 155 152 149 150 151 149 165 145 123 104 91 85 58 67 55 46 38 27 8 359 5 351 354 330 321 324
189 201 209 227 242 246 242 267 185 147 202 191 186 191 191 181 177 178 171 166 167 163 160 156 152 149 152 156 151 153 135 122 106 99 96 101 88 68 49 34 15 354 357 357 337 332 337 335 336
219 234 230 223 226 234 143 254 53 77 127 213 189 172 174 169 170 171 168 167 169 167 164 159 153 154 155 153 151 147 148 156 155 165 116 36 57 69 46 15 1 351 348 339 334 337 335 335 321
225 249 262 276 275 218 184 251 88 97 123 147 156 139 152 159 163 168 164 166 167 165 165 162 156 155 156 156 152 147 165 185 148 132 50 92 6 36 27 358 348 337 328 329 332 318 320 326 314
230 240 269 274 271 269 210 177 156 149 148 147 146 140 143 147 153 159 157 161 162 163 163 164 158 157 159 157 155 150 161 156 112 135 206 100 11 337 21 314 313 324 331 328 316 332 323 322 304
265 262 245 253 263 263 226 213 172 164 168 161 157 146 136 144 145 142 144 149 156 159 156 160 158 159 162 163 167 148 156 157 157 161 89 14 347 351 308 293 312 317 321 314 304 298 328 312 309
203 222 242 257 266 272 266 168 90 154 166 167 157 145 138 145 143 137 139 143 145 149 153 157 159 161 163 159 151 143 150 154 160 156 160 148 344 343 317 310 302 302 313 315 305 300 311 307 311
238 233 232 244 249 258 273 107 93 112 146 152 143 134 133 137 131 130 134 141 145 147 148 152 159 160 157 152 151 149 146 154 164 155 164 158 165 231 10 340 315 299 314 321 307 302 318 310 309